SCOUT D-1 R/B

Satellite information

Favourite Embed

Satellite Type and Status

ROCKET BODYIN ORBIT

Key statistics

Satellite SCOUT D-1 R/B at a glance.

Uptime

18747

Days in orbit

Revolutions

≈ 14.4

Per day

Orbit

SSO

Sun Synchronous Orbit

Inclination

97.8

Latest

Satellite identification and parameters

Extended collection of information and parameters for SCOUT D-1 R/B.

Object identification

Identified? True

Debris? False

Object name: SCOUT D-1 R/B

International designator: 1974-013B

Object number (NORAD): 7228

Object ID (CCSDS): 7228

Country: UNITED STATES OF AMERICA (US)

Current information (Y/N): Y

RCS size: MEDIUM

Orbital parameters

Period: 99.697 minutes

Inclination: 97.8168 deg

SMA: 7122.215 km

Apoapsis: 819.782 km

Periapsis: 668.378 km

RAAN: 45.4913 deg

Eccentricy: 0.010629

Argument of periapsis: 55.6066 deg

Mean anomaly: 305.5122 deg

Mean motion: 14.4437555 rev/day

Mean motion (dot): 0.00000357 rev/day2

B* drag term: 0.00010792 1/REarth

Two-line elements (TLE)

Creation date: July 5, 2025, 2:36 p.m.

Reference frame: TEME

Reference center: EARTH

Epoch: July 5, 2025, 1:54 p.m. UTC

TLE line 0: 0 SCOUT D-1 R/B

TLE line 1: 1 7228U 74013B 25186.57979046 .00000357 00000-0 10792-3 0 9990

TLE line 2: 2 7228 97.8168 45.4913 0106290 55.6066 305.5122 14.44375550688336

Live tracking on map

Real-time ground track for satellite SCOUT D-1 R/B.

In-orbit conjunctions

A list of the most updated potential collisions computed for object SCOUT D-1 R/B.

Target Orbit TCA Probability of collision Miss distance Type
FENGYUN 1C DEB SSO 2025-05-29 05:25:54 0.0001141424 262.0 (m) DEBRIS
FENGYUN 1C DEB SSO 2025-02-12 18:59:42 0.0002491253 364.0 (m) DEBRIS
DMSP 5D-3 F17 DEB SSO 2025-01-23 00:27:53 0.0001155976 641.0 (m) DEBRIS
CZ-6A DEB LEO 2024-12-23 04:33:22 0.0001654869 690.0 (m) DEBRIS

Associated space launch

British experimental satellite designed to test a three-axis gyro system for attitude control.

SCOUT D-1 R/B was lifted into orbit during the mission ‘Scout D-1 | Miranda’, on board a Scout D-1 space rocket.

The launch took place on March 9, 1974, 2:22 a.m. from Space Launch Complex 5.

For more information about the launch, click the button.

Launch to space Scout D-1 | Miranda
Scout D-1 | Miranda

Agency: N/A

Status: Launch Successful

Launch date: March 9, 1974, 2:22 a.m. UTC

Rocket: Scout D-1

Launch pad: Space Launch Complex 5

Location: Vandenberg SFB, CA, USA

...

Latest news about this satellite

There are no fresh news available about this satellite. Check back as we update our databases every day.


Newsletter sign-up

Weekly statistics, charts and insights to help you stay on top of the space industry.